カタログに戻る

QIANFAN-204

運用中通信PO
NORAD 69803·PAYLOAD·🇨🇳 China

打ち上げ Jul 4, 2026 から Taiyuan Satellite Launch Center

Loading…

次のパス (今後24時間)

TLE

最新Source: Space-Track

元期: Sep 14, 2026, 11:57 UTC

1 69803U 26153D   26257.49801105 -.01873025  00000-0 -12730+1 0  9994
2 69803  88.9973 352.1193 0010862 340.5893  19.4873 14.03843148 10217

AllMySatでQIANFAN-204をリアルタイム追跡

Download on the App Store